Regional Weather Roundup
Issued by NWS

Home | Current Version | Previous Version | Text Only | Print | Product List | Glossary On
Versions: 1 2 3 4 5 6 7 8 9 10 11 12 13 14 15 16 17 18 19 20 21 22 23 24 25 26 27 28 29 30 31 32 33 34 35 36 37 38 39 40 41 42 43 44 45 46 47 48 49 50
000
ASUS43 KOAX 010510
RWRNE

WEATHER ROUNDUP FOR NEBRASKA
NATIONAL WEATHER SERVICE OMAHA NE
1200 AM CDT SUN AUG 01 2021

NOTES: SATELLITE DATA IS BEING USED TO AUGMENT CLOUD COVER ABOVE
       12000 FEET.
       "FAIR" INDICATES FEW OR NO CLOUDS BELOW 12,000 FEET WITH NO
       SIGNIFICANT WEATHER AND/OR OBSTRUCTIONS TO VISIBILITY.


NEZ001>004-019>022-054>056-010600-
NEBRASKA PANHANDLE

CITY           SKY/WX    TMP DP  RH WIND       PRES   REMARKS
SCOTTSBLUFF    CLEAR     67  56  67 E7        30.34R
ALLIANCE       CLEAR     66  55  67 W3        30.33R
CHADRON        CLEAR     64  47  53 CALM      30.30S HAZE
GORDON         CLEAR     63  52  66 CALM      30.32S
KIMBALL        PTCLDY    60  58  92 W6        30.40S
SIDNEY         CLEAR     58  56  93 W6        30.35R FOG
$$

NEZ057>060-069>072-079>082-010600-
SOUTHWEST NEBRASKA

CITY           SKY/WX    TMP DP  RH WIND       PRES   REMARKS
NORTH PLATTE   PTCLDY    65  62  90 NW3       30.26R FOG
IMPERIAL       PTCLDY    66  62  87 W12       30.30R
LEXINGTON      MOCLDY    65  64  97 NW5       30.24R FOG
MCCOOK         CLOUDY    69  63  81 W7        30.25R HAZE
OGALLALA       CLEAR     62  60  94 CALM      30.30S
$$

NEZ005>010-023>029-035>040-094-010600-
NORTH CENTRAL NEBRASKA

CITY           SKY/WX    TMP DP  RH WIND       PRES   REMARKS
VALENTINE      CLEAR     67  57  70 E7        30.28R
AINSWORTH      CLEAR     64  59  82 E5        30.28R
BROKEN BOW     CLEAR     70  63  78 NE8       30.24R
O`NEILL        CLEAR     64  56  73 N6        30.24R
ORD            CLEAR     68  62  81 VRB3      30.21R
THEDFORD       CLEAR     65  62  87 NE5       30.29R
$$

NEZ041-046>049-061>064-073>077-083>087-010600-
SOUTH CENTRAL NEBRASKA

CITY           SKY/WX    TMP DP  RH WIND       PRES   REMARKS
GRAND ISLAND   CLEAR     69  65  86 NW6       30.19R FOG
AURORA         CLEAR     68  65  92 NW7       30.18R FOG
HASTINGS       CLEAR     68  65  90 CALM      30.20R FOG
HEBRON         PTCLDY    69  67  94 NW3       30.15S FOG
HOLDREGE       PTCLDY    68  66  94 CALM      30.22R FOG
KEARNEY        CLEAR     68  64  87 NW3       30.22R FOG
YORK           CLEAR     68  66  94 NW7       30.16R FOG
$$

NEZ011>018-030>034-042>045-010600-
NORTHEAST NEBRASKA

CITY           SKY/WX    TMP DP  RH WIND       PRES   REMARKS
NORFOLK        CLEAR     67  60  78 NW3       30.18R
ALBION         CLEAR     67  64  90 N5        30.20R
BLAIR          CLEAR     71  65  81 N7        30.13R HAZE
COLUMBUS       CLEAR     68  67  96 N7        30.17R
FREMONT        PTCLDY    70  65  85 N5        30.14S
TEKAMAH        CLEAR     66  62  87 N7        30.12R
WAYNE          CLEAR     62  59  90 CALM      30.17S
$$

NEZ050>053-065>068-078-088>093-010600-
SOUTHEAST NEBRASKA

CITY           SKY/WX    TMP DP  RH WIND       PRES   REMARKS
LINCOLN        CLEAR     71  67  87 N7        30.14R FOG
OMAHA EPPLEY   CLEAR     71  69  93 N6        30.11R
BEATRICE       CLEAR     66  65  96 CALM      30.13R FOG
FALLS CITY     CLEAR     68  67  96 NW3       30.10R FOG
NEBRASKA CITY  CLEAR     70  69  96 NW5       30.12R FOG
PLATTSMOUTH    CLEAR     70  67  91 NW3       30.12R FOG
$$

NEZ044-045-051>053-067-010600-
OMAHA AREA

CITY           SKY/WX    TMP DP  RH WIND       PRES   REMARKS
OMAHA EPPLEY   CLEAR     71  69  93 N6        30.11R
BLAIR          CLEAR     71  65  81 N7        30.13R HAZE
FREMONT        PTCLDY    70  65  85 N5        30.14S
MILLARD        CLEAR     76  68  77 N3        30.12R HAZE
OFFUTT AFB     CLEAR     74  67  79 N7        30.13R
PLATTSMOUTH    CLEAR     70  67  91 NW3       30.12R FOG
$$



USA.gov is the U.S. government's official web portal to all federal, state and local government web resources and services.